Weather History for North Myrtle Beach, SC

Change the Weather History Date:

Tuesday, December 11, 2012

  Actual Average Record
Temperature  
Mean Temperature 65 °F 50 °F  
Max Temperature 73 °F 59 °F 75 °F (2007)
Min Temperature 57 °F 40 °F 21 °F (1954)
Degree Days  
Heating Degree Days 0 15  
Month to date heating degree days 61 157  
Since 1 July heating degree days 559 518  
Cooling Degree Days 0 0  
Month to date cooling degree days 0 0  
Year to date cooling degree days 2096 1899  
Growing Degree Days 14 (Base 50)    
Moisture  
Dew Point 61 °F    
Average Humidity 83    
Maximum Humidity 100    
Minimum Humidity 66    
Precipitation  
Precipitation 0.01 in 0.12 in 0.81 in (2010)
Month to date precipitation 0.16 1.31  
Year to date precipitation 35.72 49.86  
Sea Level Pressure  
Sea Level Pressure 29.91 in    
Wind  
Wind Speed 5 mph (SW)    
Max Wind Speed 14 mph    
Max Gust Speed 18 mph    
Visibility 6 miles    
Events Fog , Rain    
T = Trace of Precipitation, MM = Missing Value Source: NWS Daily Summary

Daily Weather History Graph

Daily Weather History Graph

Search for Another Location

Airport:

Trip Planner

Search our weather history database for the weather conditions in past years. The results will help you decide how hot, cold, wet, or windy it might be!

Date:

Astronomy

Dec. 11, 2012 Rise Set
Actual Time 7:10 AM EST 5:06 PM EST
Civil Twilight 6:42 AM EST 5:34 PM EST
Nautical Twilight 6:11 AM EST 6:05 PM EST
Astronomical Twilight 5:40 AM EST 6:35 PM EST
Moon 5:05 AM EST (12/11) 3:42 PM EST (12/11)
Length of Visible Light 10h 51m
Length of Day
9h 56m
Waning Crescent, 4% of the Moon is Illuminated
Dec 11
Waning Crescent
Dec 13
New
Dec 20
First Quarter
Dec 28
Full
Jan 4
Last Quarter

Hourly Weather History & Observations

Time (EST) Temp. Dew Point Humidity Pressure Visibility Wind Dir Wind Speed Gust Speed Precip Events Conditions
12:53 AM 62.1 °F 61.0 °F 96% 29.80 in 4.0 mi SSW 8.1 mph - N/A   Overcast
1:42 AM 62.6 °F 62.6 °F 100% 29.79 in 1.8 mi SW 10.4 mph - N/A   Overcast
1:51 AM 62.6 °F 62.6 °F 100% 29.79 in 0.5 mi SW 9.2 mph - N/A Fog Fog
1:53 AM 63.0 °F 63.0 °F 100% 29.80 in 0.5 mi SW 10.4 mph - N/A Fog Fog
2:41 AM 64.4 °F 62.6 °F 94% 29.80 in 0.2 mi SW 9.2 mph - N/A Fog Fog
2:53 AM 63.0 °F 62.1 °F 97% 29.81 in 0.2 mi SW 9.2 mph - N/A Fog Fog
3:18 AM 62.6 °F 62.6 °F 100% 29.80 in 0.5 mi SW 10.4 mph - N/A Fog Fog
3:38 AM 62.6 °F 62.6 °F 100% 29.81 in 2.5 mi SW 11.5 mph - N/A   Overcast
3:45 AM 62.6 °F 62.6 °F 100% 29.81 in 5.0 mi SSW 10.4 mph - N/A   Overcast
3:53 AM 63.0 °F 63.0 °F 100% 29.81 in 2.5 mi SW 9.2 mph - N/A   Overcast
4:02 AM 62.6 °F 62.6 °F 100% 29.81 in 1.0 mi SW 9.2 mph - N/A   Overcast
4:09 AM 62.6 °F 62.6 °F 100% 29.81 in 0.8 mi SW 10.4 mph - N/A   Mist
4:53 AM 62.1 °F 61.0 °F 96% 29.81 in 0.8 mi SW 9.2 mph - N/A   Mist
5:04 AM 60.8 °F 60.8 °F 100% 29.82 in 1.0 mi SW 8.1 mph - N/A   Mist
5:16 AM 60.8 °F 60.8 °F 100% 29.82 in 3.0 mi SW 6.9 mph - N/A   Mostly Cloudy
5:29 AM 60.8 °F 60.8 °F 100% 29.82 in 6.0 mi SW 9.2 mph - N/A   Scattered Clouds
5:53 AM 61.0 °F 60.1 °F 97% 29.83 in 6.0 mi SW 6.9 mph - N/A   Clear
6:31 AM 60.8 °F 60.8 °F 100% 29.85 in 2.0 mi Calm Calm - N/A   Clear
6:36 AM 57.2 °F 57.2 °F 100% 29.85 in 0.8 mi Calm Calm - N/A   Clear
6:53 AM 57.9 °F 57.0 °F 97% 29.87 in 0.8 mi SW 3.5 mph - N/A   Clear
6:58 AM 59.0 °F 57.2 °F 94% 29.86 in 2.0 mi SW 3.5 mph - N/A   Clear
7:06 AM 60.8 °F 59.0 °F 94% 29.86 in 4.0 mi WSW 3.5 mph - N/A   Clear
7:53 AM 63.0 °F 62.1 °F 97% 29.89 in 10.0 mi West 5.8 mph - N/A   Clear
8:53 AM 64.9 °F 62.1 °F 90% 29.92 in 10.0 mi West 4.6 mph - N/A   Clear
9:53 AM 68.0 °F 61.0 °F 78% 29.94 in 10.0 mi WNW 8.1 mph - N/A   Partly Cloudy
10:21 AM 69.8 °F 60.8 °F 73% 29.95 in 10.0 mi WNW 8.1 mph - N/A   Mostly Cloudy
10:53 AM 69.1 °F 60.1 °F 73% 29.95 in 10.0 mi WNW 6.9 mph - N/A   Mostly Cloudy
11:05 AM 69.8 °F 60.8 °F 73% 29.95 in 10.0 mi Variable 5.8 mph - N/A   Mostly Cloudy
12:53 PM 70.0 °F 59.0 °F 68% 29.94 in 10.0 mi Variable 4.6 mph - N/A   Overcast
1:53 PM 71.1 °F 59.0 °F 66% 29.94 in 10.0 mi West 4.6 mph - N/A   Overcast
2:53 PM 66.9 °F 59.0 °F 76% 29.94 in 10.0 mi South 5.8 mph - N/A   Mostly Cloudy
3:53 PM 66.0 °F 59.0 °F 78% 29.96 in 10.0 mi SW 4.6 mph - N/A   Overcast
4:04 PM 64.4 °F 59.0 °F 83% 29.96 in 10.0 mi WSW 3.5 mph - N/A   Overcast
4:18 PM 66.2 °F 59.0 °F 78% 29.97 in 10.0 mi South 3.5 mph - 0.00 in Rain Light Rain
4:53 PM 64.0 °F 60.1 °F 87% 29.98 in 8.0 mi SW 3.5 mph - 0.00 in Rain Light Rain
5:53 PM 62.1 °F 60.1 °F 93% 30.00 in 8.0 mi Calm Calm - 0.00 in   Clear
6:53 PM 62.1 °F 60.1 °F 93% 30.03 in 8.0 mi Calm Calm - 0.00 in Rain Light Rain
7:53 PM 62.1 °F 61.0 °F 96% 30.02 in 8.0 mi Calm Calm - 0.01 in Rain Light Rain
8:53 PM 62.1 °F 60.1 °F 93% 30.04 in 8.0 mi Calm Calm - 0.00 in   Overcast
9:16 PM 62.6 °F 60.8 °F 94% 30.05 in 9.0 mi Calm Calm - N/A   Overcast
9:27 PM 62.6 °F 60.8 °F 94% 30.05 in 8.0 mi Calm Calm - 0.00 in Rain Light Rain
9:53 PM 62.1 °F 60.1 °F 93% 30.06 in 8.0 mi Calm Calm - 0.00 in   Overcast
10:35 PM 62.6 °F 60.8 °F 94% 30.06 in 8.0 mi Calm Calm - N/A   Overcast
10:53 PM 62.1 °F 59.0 °F 90% 30.06 in 9.0 mi Calm Calm - N/A   Overcast
11:53 PM 62.1 °F 60.1 °F 93% 30.08 in 8.0 mi Calm Calm - 0.00 in Rain Light Rain